FW0236 Weather Reports


time (UTC)temp
C
wind
direction
speed
KPH
gust
KPH
rain 1hr
cm
rain 24hr
cm
rain mn
cm
humidity
%
barometer
mb
20260503193034 17 293 3.2 12.9 0.00 0.00 0.00 39 1011.3
20260503191533 16 266 3.2 9.7 0.00 0.00 0.00 39 1011.4
20260503190024 16 220 1.6 9.7 0.00 0.00 0.00 39 1011.5
20260503184511 16 285 3.2 9.7 0.00 0.00 0.00 42 1011.9
20260503183009 16 297 1.6 9.7 0.00 0.00 0.00 40 1012.1
20260503181506 15 232 0.0 9.7 0.00 0.00 0.00 43 1012.3
20260503180005 15 240 0.0 6.4 0.00 0.00 0.00 43 1012.4
20260503174501 15 239 1.6 11.3 0.00 0.00 0.00 42 1012.7
20260503173104 15 246 1.6 11.3 0.00 0.00 0.00 43 1012.9
20260503171556 15 253 3.2 14.5 0.00 0.00 0.00 44 1013.2
20260503170105 14 233 0.0 8.0 0.00 0.00 0.00 45 1013.5
20260503081541 0 272 0.0 0.0 0.00 0.00 0.00 88 1016.1
20260503071533 0 272 0.0 0.0 0.00 0.00 0.00 87 1016.3
20260503054522 0 272 0.0 0.0 0.00 0.00 0.00 84 1017.0
20260503053026 0 272 0.0 0.0 0.00 0.00 0.00 83 1017.0
20260503051518 1 272 0.0 0.0 0.00 0.00 0.00 83 1017.0
20260503050015 1 272 0.0 0.0 0.00 0.00 0.00 83 1017.1
20260503044513 1 272 0.0 0.0 0.00 0.00 0.00 82 1017.2
20260503043011 1 272 0.0 0.0 0.00 0.00 0.00 82 1017.2
20260503041511 1 271 0.0 0.0 0.00 0.00 0.00 81 1017.2
20260503040008 1 272 0.0 0.0 0.00 0.00 0.00 80 1017.2
20260503034508 1 272 0.0 0.0 0.00 0.00 0.00 80 1017.3
20260503033007 2 272 0.0 0.0 0.00 0.00 0.00 79 1017.3
20260503031507 2 272 0.0 0.0 0.00 0.00 0.00 78 1017.4
20260503030006 2 271 0.0 0.0 0.00 0.00 0.00 77 1017.5
20260503024506 2 272 0.0 0.0 0.00 0.00 0.00 75 1017.5
20260503023005 3 272 0.0 0.0 0.00 0.00 0.00 74 1017.7
20260503021505 3 272 0.0 0.0 0.00 0.00 0.00 72 1017.7
20260503020004 3 272 0.0 0.0 0.00 0.00 0.00 70 1017.5
20260503014503 4 272 0.0 0.0 0.00 0.00 0.00 67 1017.5
20260503013010 5 272 0.0 0.0 0.00 0.00 0.00 64 1017.5
20260503011502 5 272 0.0 0.0 0.00 0.00 0.00 61 1017.4
20260503010004 6 272 0.0 0.0 0.00 0.00 0.00 60 1017.4
20260503004503 6 272 0.0 0.0 0.00 0.00 0.00 56 1017.4
20260503003003 7 272 0.0 0.0 0.00 0.00 0.00 55 1017.2
20260503001504 7 271 0.0 0.0 0.00 0.00 0.00 51 1017.2
20260503000107 7 272 0.0 1.6 0.00 0.00 0.00 49 1017.2
20260502234559 8 274 0.0 3.2 0.00 0.00 0.00 49 1017.1
20260502233059 8 290 0.0 3.2 0.00 0.00 0.00 47 1017.3
20260502231605 8 274 0.0 1.6 0.00 0.00 0.00 47 1017.4
20260502230056 8 271 0.0 1.6 0.00 0.00 0.00 48 1017.4
20260502224556 8 281 0.0 1.6 0.00 0.00 0.00 49 1017.4
20260502223055 8 287 0.0 9.7 0.00 0.00 0.00 47 1017.4
20260502221557 8 321 0.0 4.8 0.00 0.00 0.00 47 1017.4
20260502220054 8 294 0.0 6.4 0.00 0.00 0.00 48 1017.4
20260502214558 8 293 0.0 3.2 0.00 0.00 0.00 46 1017.4
20260502213052 8 162 0.0 6.4 0.00 0.00 0.00 48 1017.5
20260502211553 8 288 0.0 3.2 0.00 0.00 0.00 47 1017.5
20260502210100 8 277 1.6 4.8 0.00 0.00 0.00 46 1017.6
20260502204554 8 266 0.0 4.8 0.00 0.00 0.00 47 1017.6
20260502203051 8 270 0.0 4.8 0.00 0.00 0.00 47 1017.7
20260502201546 8 242 0.0 4.8 0.00 0.00 0.00 46 1017.8
20260502200051 8 268 0.0 4.8 0.00 0.00 0.00 48 1018.0
20260502194545 8 273 0.0 4.8 0.00 0.00 0.00 48 1018.1